H1 CPF 2 NER 2024 10 20 9 294 01 glonass129 H2 1106402 9129 37868 2024 10 20 0 0 0 2024 10 23 23 45 0 900 1 1 0 0 0 1 H9 10 0 60603 0.00000 0 -12260036.177 -1412081.459 22348645.496 10 0 60603 900.00000 0 -13543431.527 -3773956.628 21303043.266 10 0 60603 1800.00000 0 -14917460.183 -5904156.656 19844504.891 10 0 60603 2700.00000 0 -16328034.445 -7762059.672 18001027.127 10 0 60603 3600.00000 0 -17715882.056 -9318551.434 15808108.760 10 0 60603 4500.00000 0 -19019022.367 -10556996.740 13308086.227 10 0 60603 5400.00000 0 -20175382.653 -11473691.433 10549332.313 10 0 60603 6300.00000 0 -21125445.208 -12077774.968 7585331.613 10 0 60603 7200.00000 0 -21814813.471 -12390605.959 4473649.438 10 0 60603 8100.00000 0 -22196587.877 -12444625.991 1274813.519 10 0 60603 9000.00000 0 -22233449.257 -12281758.962 -1948869.708 10 0 60603 9900.00000 0 -21899359.375 -11951413.507 -5134540.443 10 0 60603 10800.00000 0 -21180804.077 -11508173.578 -8220027.251 10 0 60603 11700.00000 0 -20077523.861 -11009276.185 -11145079.243 10 0 60603 12600.00000 0 -18602698.688 -10511984.963 -13852562.533 10 0 60603 13500.00000 0 -16782577.409 -10070973.020 -16289595.528 10 0 60603 14400.00000 0 -14655566.270 -9735828.286 -18408598.929 10 0 60603 15300.00000 0 -12270814.450 -9548789.295 -20168238.249 10 0 60603 16200.00000 0 -9686356.289 -9542809.164 -21534239.267 10 0 60603 17100.00000 0 -6966888.905 -9740031.122 -22480059.799 10 0 60603 18000.00000 0 -4181279.357 -10150740.834 -22987404.562 10 0 60603 18900.00000 0 -1399906.772 -10772839.933 -23046573.421 10 0 60603 19800.00000 0 1308048.614 -11591862.553 -22656637.060 10 0 60603 20700.00000 0 3877255.749 -12581533.170 -21825437.790 10 0 60603 21600.00000 0 6248711.904 -13704840.939 -20569416.829 10 0 60603 22500.00000 0 8371947.981 -14915583.750 -18913272.935 10 0 60603 23400.00000 0 10206869.435 -16160315.479 -16889460.529 10 0 60603 24300.00000 0 11725158.107 -17380613.127 -14537538.557 10 0 60603 25200.00000 0 12911179.130 -18515567.405 -11903384.047 10 0 60603 26100.00000 0 13762358.048 -19504391.347 -9038286.817 10 0 60603 27000.00000 0 14289015.631 -20289037.088 -5997943.847 10 0 60603 27900.00000 0 14513670.518 -20816711.052 -2841373.453 10 0 60603 28800.00000 0 14469841.836 -21042182.571 370229.276 10 0 60603 29700.00000 0 14200404.520 -20929789.980 3574673.567 10 0 60603 30600.00000 0 13755568.212 -20455061.219 6709968.033 10 0 60603 31500.00000 0 13190565.764 -19605882.193 9715507.227 10 0 60603 32400.00000 0 12563148.860 -18383165.058 12533227.729 10 0 60603 33300.00000 0 11930995.659 -16800989.214 15108712.757 10 0 60603 34200.00000 0 11349138.493 -14886209.392 17392225.442 10 0 60603 35100.00000 0 10867518.391 -12677546.890 19339652.523 10 0 60603 36000.00000 0 10528767.660 -10224200.815 20913341.898 10 0 60603 36900.00000 0 10366312.228 -7584035.571 22082819.400 10 0 60603 37800.00000 0 10402872.373 -4821417.745 22825372.229 10 0 60603 38700.00000 0 10649424.204 -2004789.635 23126488.610 10 0 60603 39600.00000 0 11104665.648 795922.598 22980145.486 10 0 60603 40500.00000 0 11755010.293 3511961.385 22388938.388 10 0 60603 41400.00000 0 12575110.936 6078343.231 21364050.095 10 0 60603 42300.00000 0 13528893.088 8436311.021 19925057.188 10 0 60603 43200.00000 0 14571057.571 10535532.612 18099576.355 10 0 60603 44100.00000 0 15648991.659 12335954.910 15922755.046 10 0 60603 45000.00000 0 16705010.790 13809236.048 13436614.068 10 0 60603 45900.00000 0 17678838.271 14939695.242 10689252.662 10 0 60603 46800.00000 0 18510219.650 15724739.464 7733929.613 10 0 60603 47700.00000 0 19141561.626 16174747.731 4628036.937 10 0 60603 48600.00000 0 19520483.404 16312416.616 1431985.359 10 0 60603 49500.00000 0 19602171.106 16171593.593 -1791976.739 10 0 60603 50400.00000 0 19351433.483 15795646.933 -4980987.178 10 0 60603 51300.00000 0 18744369.300 15235441.174 -8072811.518 10 0 60603 52200.00000 0 17769573.097 14547004.579 -11007076.312 10 0 60603 53100.00000 0 16428825.673 13788988.733 -13726467.913 10 0 60603 54000.00000 0 14737237.866 13020029.688 -16177871.367 10 0 60603 54900.00000 0 12722839.838 12296124.553 -18313425.150 10 0 60603 55800.00000 0 10425632.195 11668136.723 -20091469.461 10 0 60603 56700.00000 0 7896138.489 11179537.255 -21477368.317 10 0 60603 57600.00000 0 5193520.185 10864479.391 -22444188.732 10 0 60603 58500.00000 0 2383333.828 10746288.507 -22973223.473 10 0 60603 59400.00000 0 -464974.740 10836431.484 -23054347.608 10 0 60603 60300.00000 0 -3280733.477 11134008.552 -22686202.645 10 0 60603 61200.00000 0 -5994752.591 11625788.017 -21876205.820 10 0 60603 62100.00000 0 -8541965.122 12286780.861 -20640385.727 10 0 60603 63000.00000 0 -10863889.847 13081329.278 -19003048.982 10 0 60603 63900.00000 0 -12910814.749 13964661.327 -16996285.941 10 0 60603 64800.00000 0 -14643611.655 14884844.473 -14659326.544 10 0 60603 65700.00000 0 -16035108.545 15785054.182 -12037760.136 10 0 60603 66600.00000 0 -17070964.942 16606060.894 -9182635.592 10 0 60603 67500.00000 0 -17750016.786 17288829.948 -6149460.148 10 0 60603 68400.00000 0 -18084079.511 17777124.870 -2997117.004 10 0 60603 69300.00000 0 -18097220.516 18020004.716 213276.898 10 0 60603 70200.00000 0 -17824534.168 17974111.141 3419550.732 10 0 60603 71100.00000 0 -17310472.847 17605650.016 6559674.758 10 0 60603 72000.00000 0 -16606805.509 16891985.480 9572947.860 10 0 60603 72900.00000 0 -15770290.184 15822780.586 12401155.680 10 0 60603 73800.00000 0 -14860158.116 14400637.528 14989678.264 10 0 60603 74700.00000 0 -13935514.435 12641211.079 17288527.301 10 0 60603 75600.00000 0 -13052763.278 10572790.316 19253294.590 10 0 60603 76500.00000 0 -12263163.794 8235365.254 20845995.140 10 0 60603 77400.00000 0 -11610617.927 5679215.816 22035790.128 10 0 60603 78300.00000 0 -11129781.233 2963079.759 22799577.051 10 0 60603 79200.00000 0 -10844574.829 151973.084 23122436.568 10 0 60603 80100.00000 0 -10767160.329 -2685249.404 22997927.696 10 0 60603 81000.00000 0 -10897420.926 -5478495.084 22428225.436 10 0 60603 81900.00000 0 -11222971.248 -8159090.914 21424097.275 10 0 60603 82800.00000 0 -11719697.159 -10662389.194 20004717.589 10 0 60603 83700.00000 0 -12352804.816 -12930215.223 18197321.650 10 0 60603 84600.00000 0 -13078337.225 -14913056.068 16036703.721 10 0 60603 85500.00000 0 -13845096.702 -16571899.470 13564566.653 10 0 60604 0.00000 0 -14596894.139 -17879645.628 10828733.670 10 0 60604 900.00000 0 -15275031.964 -18822032.446 7882234.206 10 0 60604 1800.00000 0 -15820915.536 -19398032.402 4782283.926 10 0 60604 2700.00000 0 -16178683.640 -19619705.252 1589173.106 10 0 60604 3600.00000 0 -16297744.647 -19511509.599 -1634911.443 10 0 60604 4500.00000 0 -16135109.436 -19109102.201 -4827108.702 10 0 60604 5400.00000 0 -15657419.754 -18457675.199 -7925124.711 10 0 60604 6300.00000 0 -14842583.325 -17609901.811 -10868466.835 10 0 60604 7200.00000 0 -13680943.675 -16623578.331 -13599644.870 10 0 60604 8100.00000 0 -12175932.608 -15559063.678 -16065313.429 10 0 60604 9000.00000 0 -10344175.640 -14476626.688 -18217331.339 10 0 60604 9900.00000 0 -8215044.436 -13433815.383 -20013715.596 10 0 60604 10800.00000 0 -5829674.241 -12482961.330 -21419470.051 10 0 60604 11700.00000 0 -3239487.423 -11668926.095 -22407271.881 10 0 60604 12600.00000 0 -504285.426 -11027185.978 -22958002.265 10 0 60604 13500.00000 0 2310010.208 -10582336.174 -23061111.217 10 0 60604 14400.00000 0 5133872.434 -10347077.081 -22714810.258 10 0 60604 15300.00000 0 7896833.018 -10321724.451 -21926090.262 10 0 60604 16200.00000 0 10530184.864 -10494262.406 -20710565.502 10 0 60604 17100.00000 0 12969609.596 -10840935.057 -19092148.420 10 0 60604 18000.00000 0 15157621.258 -11327349.612 -17102562.969 10 0 60604 18900.00000 0 17045725.382 -11910042.226 -14780707.469 10 0 60604 19800.00000 0 18596205.064 -12538438.612 -12171880.711 10 0 60604 20700.00000 0 19783461.750 -13157125.106 -9326887.497 10 0 60604 21600.00000 0 20594857.377 -13708333.229 -6301041.974 10 0 60604 22500.00000 0 21031025.551 -14134532.408 -3153088.719 10 0 60604 23400.00000 0 21105641.590 -14381021.425 55937.038 10 0 60604 24300.00000 0 20844663.779 -14398409.804 3263887.950 10 0 60604 25200.00000 0 20285079.882 -14144885.406 6408699.286 10 0 60604 26100.00000 0 19473213.159 -13588173.787 9429577.353 10 0 60604 27000.00000 0 18462659.956 -12707108.028 12268159.564 10 0 60604 27900.00000 0 17311945.594 -11492743.969 14869625.063 10 0 60604 28800.00000 0 16081996.432 -9948974.687 17183735.871 10 0 60604 29700.00000 0 14833532.989 -8092618.500 19165790.136 10 0 60604 30600.00000 0 13624491.816 -5952976.239 20777470.772 10 0 60604 31500.00000 0 12507582.353 -3570874.986 21987574.614 10 0 60604 32400.00000 0 11528079.260 -997236.212 22772609.337 10 0 60604 33300.00000 0 10721941.080 1708774.657 23117247.494 10 0 60604 34200.00000 0 10114332.888 4481943.171 23014629.262 10 0 60604 35100.00000 0 9718614.245 7253457.192 22466507.842 10 0 60604 36000.00000 0 9535835.032 9953515.867 21483233.848 10 0 60604 36900.00000 0 9554761.158 12513990.503 20083577.602 10 0 60604 37800.00000 0 9752430.479 14871028.876 18294390.884 10 0 60604 38700.00000 0 10095217.423 16967496.072 16150112.494 10 0 60604 39600.00000 0 10540363.521 18755150.740 13692124.896 10 0 60604 40500.00000 0 11037911.238 20196465.753 10967972.223 10 0 60604 41400.00000 0 11532961.007 21266016.319 8030452.870 10 0 60604 42300.00000 0 11968156.987 21951375.961 4936602.935 10 0 60604 43200.00000 0 12286296.472 22253481.158 1746589.462 10 0 60604 44100.00000 0 12432951.735 22186447.655 -1477465.059 10 0 60604 45000.00000 0 12358991.661 21776844.839 -4672703.423 10 0 60604 45900.00000 0 12022894.073 21062457.887 -7776774.619 10 0 60604 46800.00000 0 11392748.080 20090589.714 -10729069.048 10 0 60604 47700.00000 0 10447858.762 18915974.892 -13471921.864 10 0 60604 48600.00000 0 9179883.465 17598394.749 -15951758.846 10 0 60604 49500.00000 0 7593449.224 16200095.970 -18120160.450 10 0 60604 50400.00000 0 5706223.296 14783123.623 -19934821.463 10 0 60604 51300.00000 0 3548432.557 13406683.035 -21360386.302 10 0 60604 52200.00000 0 1161851.316 12124643.488 -22369142.840 10 0 60604 53100.00000 0 -1401699.903 10983290.168 -22941560.988 10 0 60604 54000.00000 0 -4082281.244 10019419.636 -23066665.824 10 0 60604 54900.00000 0 -6814104.633 9258858.814 -22742238.762 10 0 60604 55800.00000 0 -9528053.302 8715468.938 -21974843.914 10 0 60604 56700.00000 0 -12154343.786 8390674.753 -20779680.518 10 0 60604 57600.00000 0 -14625218.911 8273536.645 -19180265.801 10 0 60604 58500.00000 0 -16877559.443 8341360.201 -17207955.948 10 0 60604 59400.00000 0 -18855306.091 8560814.898 -14901316.027 10 0 60604 60300.00000 0 -20511592.004 8889512.336 -12305352.406 10 0 60604 61200.00000 0 -21810498.486 9277975.241 -9470623.790 10 0 60604 62100.00000 0 -22728362.800 9671912.507 -6452249.102 10 0 60604 63000.00000 0 -23254585.932 10014703.092 -3308832.086 10 0 60604 63900.00000 0 -23391909.165 10249983.415 -101323.972 10 0 60604 64800.00000 0 -23156150.464 10324229.078 3108153.721 10 0 60604 65700.00000 0 -22575414.029 10189222.550 6257503.690 10 0 60604 66600.00000 0 -21688807.943 9804303.619 9285842.147 10 0 60604 67500.00000 0 -20544724.909 9138308.909 12134660.810 10 0 60604 68400.00000 0 -19198758.583 8171119.835 14748940.453 10 0 60604 69300.00000 0 -17711342.616 6894754.752 17078195.902 10 0 60604 70200.00000 0 -16145210.364 5313959.799 19077433.993 10 0 60604 71100.00000 0 -14562780.103 3446273.425 20708007.665 10 0 60604 72000.00000 0 -13023573.339 1321560.936 21938351.251 10 0 60604 72900.00000 0 -11581772.133 -1018963.147 22744584.093 10 0 60604 73800.00000 0 -10284015.616 -3524186.525 23110971.740 10 0 60604 74700.00000 0 -9167526.221 -6134966.686 23030236.217 10 0 60604 75600.00000 0 -8258642.815 -8786340.069 22503709.183 10 0 60604 76500.00000 0 -7571821.593 -11409984.118 21541324.210 10 0 60604 77400.00000 0 -7109146.759 -13936832.786 20161446.952 10 0 60604 78300.00000 0 -6860372.301 -16299739.176 18390544.660 10 0 60604 79200.00000 0 -6803494.442 -18436076.287 16262699.208 10 0 60604 80100.00000 0 -6905832.328 -20290168.404 13818970.833 10 0 60604 81000.00000 0 -7125573.179 -21815451.813 11106622.636 10 0 60604 81900.00000 0 -7413718.205 -22976273.816 8178218.987 10 0 60604 82800.00000 0 -7716348.147 -23749253.363 5090613.923 10 0 60604 83700.00000 0 -7977112.994 -24124144.477 1903848.351 10 0 60604 84600.00000 0 -8139840.046 -24104164.281 -1320022.607 10 0 60604 85500.00000 0 -8151148.594 -23705770.037 -4518148.684 10 0 60605 0.00000 0 -7962958.481 -22957893.304 -7628124.733 10 0 60605 900.00000 0 -7534783.523 -21900662.221 -10589227.947 10 0 60605 1800.00000 0 -6835710.122 -20583666.834 -13343621.697 10 0 60605 2700.00000 0 -5845974.030 -19063839.870 -15837505.946 10 0 60605 3600.00000 0 -4558066.120 -17403044.520 -18022185.562 10 0 60605 4500.00000 0 -2977318.107 -15665472.226 -19855035.589 10 0 60605 5400.00000 0 -1121941.891 -13914961.996 -21300343.045 10 0 60605 6300.00000 0 977480.194 -12212355.841 -22330008.038 10 0 60605 7200.00000 0 3279033.095 -10613003.018 -22924090.206 10 0 60605 8100.00000 0 5730991.009 -9164518.806 -23071190.154 10 0 60605 9000.00000 0 8273759.185 -7904892.117 -22768659.125 10 0 60605 9900.00000 0 10842153.457 -6861020.773 -22022633.939 10 0 60605 10800.00000 0 13367921.347 -6047734.507 -20847897.861 10 0 60605 11700.00000 0 15782398.753 -5467344.658 -19267571.572 10 0 60605 12600.00000 0 18019190.923 -5109736.891 -17312641.808 10 0 60605 13500.00000 0 20016765.950 -4953000.179 -15021338.330 10 0 60605 14400.00000 0 21720853.180 -4964562.691 -12438372.659 10 0 60605 15300.00000 0 23086547.566 -5102784.046 -9614054.615 10 0 60605 16200.00000 0 24080033.786 -5318934.501 -6603304.751 10 0 60605 17100.00000 0 24679860.140 -5559475.856 -3464582.553 10 0 60605 18000.00000 0 24877711.278 -5768546.685 -258751.639 10 0 60605 18900.00000 0 24678649.810 -5890546.537 2952095.979 10 0 60605 19800.00000 0 24100818.913 -5872710.172 6105834.054 10 0 60605 20700.00000 0 23174620.239 -5667563.844 9141492.120 10 0 60605 21600.00000 0 21941402.943 -5235161.017 12000419.320 10 0 60605 22500.00000 0 20451719.373 -4545004.395 14627400.780 10 0 60605 23400.00000 0 18763220.464 -3577574.359 16971706.414 10 0 60605 24300.00000 0 16938278.136 -2325400.228 18988053.560 10 0 60605 25200.00000 0 15041432.759 -793629.502 20637466.539 10 0 60605 26100.00000 0 13136770.506 999929.276 21888018.082 10 0 60605 27000.00000 0 11285338.011 3025293.105 22715439.656 10 0 60605 27900.00000 0 9542700.033 5241302.219 23103589.842 10 0 60605 28800.00000 0 7956740.090 7597089.850 23044772.127 10 0 60605 29700.00000 0 6565794.225 10033965.807 22539895.837 10 0 60605 30600.00000 0 5397194.746 12487638.691 21598476.312 10 0 60605 31500.00000 0 4466284.404 14890687.269 20238472.995 10 0 60605 32400.00000 0 3775942.454 17175180.892 18485966.715 10 0 60605 33300.00000 0 3316643.278 19275341.904 16374680.260 10 0 60605 34200.00000 0 3067046.350 21130140.356 13945349.209 10 0 60605 35100.00000 0 2995094.175 22685713.121 11244953.011 10 0 60605 36000.00000 0 3059573.377 23897505.869 8325819.223 10 0 60605 36900.00000 0 3212074.143 24732046.942 5244616.905 10 0 60605 37800.00000 0 3399265.824 25168276.974 2061257.835 10 0 60605 38700.00000 0 3565392.247 25198376.297 -1162273.234 10 0 60605 39600.00000 0 3654880.197 24828053.178 -4363135.920 10 0 60605 40500.00000 0 3614948.866 24076278.927 -7478874.278 10 0 60605 41400.00000 0 3398107.394 22974479.626 -10448653.743 10 0 60605 42300.00000 0 2964432.002 21565217.869 -13214468.755 10 0 60605 43200.00000 0 2283523.342 19900420.072 -15722295.417 10 0 60605 44100.00000 0 1336058.482 18039224.766 -17923164.642 10 0 60605 45000.00000 0 114869.424 16045543.748 -19774133.033 10 0 60605 45900.00000 0 -1374499.313 13985440.338 -21239131.223 10 0 60605 46800.00000 0 -3113778.883 11924436.638 -22289672.289 10 0 60605 47700.00000 0 -5072511.213 9924864.436 -22905406.073 10 0 60605 48600.00000 0 -7209108.587 8043372.002 -23074508.896 10 0 60605 49500.00000 0 -9472392.768 6328691.765 -22793901.725 10 0 60605 50400.00000 0 -11803548.366 4819762.135 -22069293.651 10 0 60605 51300.00000 0 -14138407.696 3544281.063 -20915051.157 10 0 60605 52200.00000 0 -16409970.706 2517750.072 -19353897.212 10 0 60605 53100.00000 0 -18551053.895 1743046.357 -17416447.592 10 0 60605 54000.00000 0 -20496957.250 1210537.974 -15140594.941 10 0 60605 54900.00000 0 -22188037.934 898734.114 -12570753.902 10 0 60605 55800.00000 0 -23572083.816 775440.066 -9756983.206 10 0 60605 56700.00000 0 -24606388.829 799365.421 -6754002.735 10 0 60605 57600.00000 0 -25259444.990 922115.432 -3620125.340 10 0 60605 58500.00000 0 -25512182.207 1090479.859 -416124.592 10 0 60605 59400.00000 0 -25358706.110 1248921.686 2795939.485 10 0 60605 60300.00000 0 -24806505.036 1342160.378 5953914.222 10 0 60605 61200.00000 0 -23876119.366 1317740.909 8996745.053 10 0 60605 62100.00000 0 -22600288.426 1128480.983 11865641.122 10 0 60605 63000.00000 0 -21022611.505 734694.297 14505194.452 10 0 60605 63900.00000 0 -19195779.163 106097.331 16864432.484 10 0 60605 64800.00000 0 -17179448.210 -776679.615 18897785.310 10 0 60605 65700.00000 0 -15037847.912 -1921040.094 20565950.620 10 0 60605 66600.00000 0 -12837215.547 -3321872.082 21836641.197 10 0 60605 67500.00000 0 -10643166.130 -4961525.205 22685201.914 10 0 60605 68400.00000 0 -8518103.557 -6810317.097 23095085.259 10 0 60605 69300.00000 0 -6518778.782 -8827549.882 23058176.659 10 0 60605 70200.00000 0 -4694094.760 -10962997.130 22574963.188 10 0 60605 71100.00000 0 -3083248.075 -13158802.325 21654541.678 10 0 60605 72000.00000 0 -1714283.849 -15351712.837 20314464.721 10 0 60605 72900.00000 0 -603123.987 -17475559.166 18580425.760 10 0 60605 73800.00000 0 246890.300 -19463878.486 16485787.192 10 0 60605 74700.00000 0 844921.633 -21252574.644 14070958.330 10 0 60605 75600.00000 0 1212027.347 -22782504.292 11382633.049 10 0 60605 76500.00000 0 1380042.426 -24001880.864 8472899.903 10 0 60605 77400.00000 0 1390000.424 -24868394.663 5398240.553 10 0 60605 78300.00000 0 1290158.302 -25350958.436 2218435.033 10 0 60605 79200.00000 0 1133708.505 -25431002.900 -1004605.032 10 0 60605 80100.00000 0 976275.666 -25103265.348 -4208052.013 10 0 60605 81000.00000 0 873305.289 -24376035.835 -7329401.846 10 0 60605 81900.00000 0 877456.988 -23270848.667 -10307711.749 10 0 60605 82800.00000 0 1036115.266 -21821630.857 -13084809.932 10 0 60605 83700.00000 0 1389125.999 -20073342.818 -15606451.546 10 0 60605 84600.00000 0 1966857.280 -18080168.626 -17823396.297 10 0 60605 85500.00000 0 2788669.190 -15903332.837 -19692384.849 10 0 60606 0.00000 0 3861859.180 -13608637.075 -21176993.495 10 0 60606 900.00000 0 5181129.739 -11263820.157 -22248350.278 10 0 60606 1800.00000 0 6728600.183 -8935857.096 -22885696.362 10 0 60606 2700.00000 0 8474364.208 -6688307.338 -23076784.557 10 0 60606 3600.00000 0 10377568.095 -4578827.033 -22818105.854 10 0 60606 4500.00000 0 12387964.063 -2656948.287 -22114941.470 10 0 60606 5400.00000 0 14447872.532 -962217.772 -20981240.553 10 0 60606 6300.00000 0 16494470.037 477228.994 -19439327.425 10 0 60606 7200.00000 0 18462305.970 1645600.239 -17519445.602 10 0 60606 8100.00000 0 20285942.167 2539851.188 -15259148.940 10 0 60606 9000.00000 0 21902604.578 3169544.249 -12702553.148 10 0 60606 9900.00000 0 23254736.239 3556175.280 -9899463.430 10 0 60606 10800.00000 0 24292345.395 3731997.451 -6904396.196 10 0 60606 11700.00000 0 24975051.642 3738394.968 -3775514.552 10 0 60606 12600.00000 0 25273745.939 3623877.431 -573498.685 10 0 60606 13500.00000 0 25171796.739 3441780.922 2639626.833 10 0 60606 14400.00000 0 24665753.577 3247773.651 5801686.377 10 0 60606 15300.00000 0 23765520.342 3097271.505 8851544.627 10 0 60606 16200.00000 0 22493992.372 3042872.053 11730273.861 10 0 60606 17100.00000 0 20886173.460 3131914.258 14382275.840 10 0 60606 18000.00000 0 18987809.961 3404265.573 16756338.031 10 0 60606 18900.00000 0 16853598.709 3890428.388 18806605.411 10 0 60606 19800.00000 0 14545042.418 4610044.537 20493450.791 10 0 60606 20700.00000 0 12128040.360 5570860.204 21784228.379 10 0 60606 21600.00000 0 9670312.523 6768194.806 22653897.438 10 0 60606 22500.00000 0 7238762.043 8184937.019 23085504.953 10 0 60606 23400.00000 0 4896883.195 9792069.741 23070518.464 10 0 60606 24300.00000 0 2702320.456 11549704.337 22609002.553 10 0 60606 25200.00000 0 704678.261 13408583.764 21709634.848 10 0 60606 26100.00000 0 -1056328.710 15311994.796 20389559.974 10 0 60606 27000.00000 0 -2552308.378 17198012.475 18674082.457 10 0 60606 27900.00000 0 -3767147.542 19001985.673 16596202.407 10 0 60606 28800.00000 0 -4697451.077 20659161.869 14196000.651 10 0 60606 29700.00000 0 -5352444.742 22107342.551 11519883.020 10 0 60606 30600.00000 0 -5753344.498 23289458.296 8619696.389 10 0 60606 31500.00000 0 -5932217.716 24155954.889 5551732.192 10 0 60606 32400.00000 0 -5930383.369 24666888.794 2375635.786 10 0 60606 33300.00000 0 -5796418.339 24793641.761 -846757.324 10 0 60606 34200.00000 0 -5583854.352 24520179.893 -4052635.254 10 0 60606 35100.00000 0 -5348663.938 23843801.571 -7179448.737 10 0 60606 36000.00000 0 -5146643.504 22775340.342 -10166149.563 10 0 60606 36900.00000 0 -5030806.568 21338812.315 -12954402.274 10 0 60606 37800.00000 0 -5048900.135 19570521.681 -15489743.384 10 0 60606 38700.00000 0 -5241152.068 17517661.470 -17722663.409 10 0 60606 39600.00000 0 -5638347.356 15236468.633 -19609588.783 10 0 60606 40500.00000 0 -6260316.829 12790011.784 -21113743.093 10 0 60606 41400.00000 0 -7114903.849 10245705.649 -22205869.933 10 0 60606 42300.00000 0 -8197453.608 7672657.853 -22864802.888 10 0 60606 43200.00000 0 -9490846.965 5138960.418 -23077871.756 10 0 60606 44100.00000 0 -10966077.145 2709040.195 -22841137.709 10 0 60606 45000.00000 0 -12583344.333 441179.403 -22159453.861 10 0 60606 45900.00000 0 -14293621.081 -1614690.509 -21046351.408 10 0 60606 46800.00000 0 -16040621.598 -3418830.604 -19523755.006 10 0 60606 47700.00000 0 -17763091.068 -4943096.731 -17621534.498 10 0 60606 48600.00000 0 -19397317.970 -6171846.209 -15376903.202 10 0 60606 49500.00000 0 -20879763.409 -7102314.067 -12833675.865 10 0 60606 50400.00000 0 -22149696.941 -7744446.329 -10041401.919 10 0 60606 51300.00000 0 -23151728.678 -8120200.714 -7054391.905 10 0 60606 52200.00000 0 -23838132.187 -8262347.264 -3930656.675 10 0 60606 53100.00000 0 -24170861.942 -8212821.997 -730780.441 10 0 60606 54000.00000 0 -24123182.180 -8020705.012 2483250.337 10 0 60606 54900.00000 0 -23680840.457 -7739909.572 5649239.791 10 0 60606 55800.00000 0 -22842738.283 -7426680.171 8705974.597 10 0 60606 56700.00000 0 -21621072.076 -7137004.962 11594392.917 10 0 60606 57600.00000 0 -20040939.471 -6924050.911 14258708.937 10 0 60606 58500.00000 0 -18139427.829 -6835728.590 16647472.699 10 0 60606 59400.00000 0 -15964222.773 -6912487.865 18714546.407 10 0 60606 60300.00000 0 -13571793.844 -7185435.909 20419980.031 10 0 60606 61200.00000 0 -11025231.340 -7674855.709 21730770.890 10 0 60606 62100.00000 0 -8391822.283 -8389186.811 22621493.922 10 0 60606 63000.00000 0 -5740463.817 -9324511.272 23074791.484 10 0 60606 63900.00000 0 -3139018.974 -10464567.372 23081713.704 10 0 60606 64800.00000 0 -651722.100 -11781292.184 22641902.756 10 0 60606 65700.00000 0 1663260.518 -13235872.649 21763616.824 10 0 60606 66600.00000 0 3756015.116 -14780263.890 20463591.995 10 0 60606 67500.00000 0 5586720.298 -16359114.140 18766743.019 10 0 60606 68400.00000 0 7127066.035 -17912018.444 16705706.551 10 0 60606 69300.00000 0 8361192.418 -19376009.038 14320233.474 10 0 60606 70200.00000 0 9286108.169 -20688179.620 11656439.792 10 0 60606 71100.00000 0 9911570.355 -21788334.159 8765928.620 10 0 60606 72000.00000 0 10259429.110 -22621548.735 5704798.780 10 0 60606 72900.00000 0 10362463.933 -23140537.580 2532558.331 10 0 60606 73800.00000 0 10262759.908 -23307721.828 -689036.168 10 0 60606 74700.00000 0 10009692.293 -23096911.338 -3897191.526 10 0 60606 75600.00000 0 9657605.212 -22494525.979 -7029316.300 10 0 60606 76500.00000 0 9263283.900 -21500302.157 -10024259.883 10 0 60606 77400.00000 0 8883329.376 -20127452.419 -12823526.155 10 0 60606 78300.00000 0 8571548.992 -18402269.554 -15372435.884 10 0 60606 79200.00000 0 8376475.871 -16363190.686 -17621213.127 10 0 60606 80100.00000 0 8339124.707 -14059360.352 -19525972.575 10 0 60606 81000.00000 0 8491081.104 -11548753.211 -21049587.155 10 0 60606 81900.00000 0 8853006.940 -8895935.950 -22162418.033 10 0 60606 82800.00000 0 9433626.040 -6169563.380 -22842892.392 10 0 60606 83700.00000 0 10229233.410 -3439714.733 -23077917.855 10 0 60606 84600.00000 0 11223748.563 -775182.559 -22863126.143 10 0 60606 85500.00000 0 12389309.925 1759171.860 -22202942.202 99